User: anonymous   Login
Location: Arrodets-la-Barthe
(43.0306°N, 0.2829°E)
Time: 13:08:10
(UTC+00:00)
Language:

CSL-04 Rocket - Orbit

View from above orbital plane
View from above orbital plane
View from above satellite
View from above satellite

Ground track
Ground track

The orbit data is extracted from the following two-line orbital elements,

1 25732U 99025C   22272.91634039  .00000048  00000-0  45394-4 0  9995
2 25732  98.8443 313.8942 0037111 350.5930 182.3027 14.17744950210058
Epoch (UTC): 29 September 2022 21:59:31
Eccentricity: 0.0037111
inclination: 98.8443°
perigee height: 806 km
apogee height: 860 km
right ascension of ascending node: 313.8942°
argument of perigee: 350.5930°
revolutions per day: 14.17744950
mean anomaly at epoch: 182.3027°
orbit number at epoch: 21005

The dashed part of the orbit path shows where the satellite is in the earth's shadow,  

DLR